English version Home page |
Updated on September 28, 2002 |
プロフィール
|
軌道要素T 2002 Aug. 19.0906 TT MPC q 1.306213 (2000.0) P Q Peri. 125.7626 +0.5684280 +0.6996723 Node 154.1517 -0.4737862 -0.1517288 e 1.0 Incl. 96.8949 +0.6726190 -0.6981669 >From 77 observations 2002 Aug. 26-Sept. 13.
|
星図
|
光度変化m1 = 13.7 + 5 logΔ + 10.0 log r
|
軌道要素はM.P.E.C. 2002-S12に掲載されたものです。
|